| time (UTC) | temp C | wind direction | speed KPH | gust KPH | rain 1hr cm | rain 24hr cm | rain mn cm | humidity % | barometer mb |
| 20260508224030 | 31 | 51 | 1.6 | 4.8 | 0.00 | 0.00 | 0.00 | 15 | 1000.8 |
| 20260508221028 | 31 | 155 | 0.0 | 4.8 | 0.00 | 0.00 | 0.00 | 16 | 1000.8 |
| 20260508214028 | 30 | 256 | 6.4 | 12.9 | 0.00 | 0.00 | 0.00 | 17 | 1001.3 |
| 20260508211027 | 30 | 246 | 3.2 | 9.7 | 0.00 | 0.00 | 0.00 | 17 | 1001.9 |
| 20260508204025 | 30 | 196 | 3.2 | 9.7 | 0.00 | 0.00 | 0.00 | 18 | 1002.3 |
| 20260508201024 | 30 | 261 | 4.8 | 16.1 | 0.00 | 0.00 | 0.00 | 16 | 1002.9 |
| 20260508194023 | 28 | 328 | 8.0 | 20.9 | 0.00 | 0.00 | 0.00 | 23 | 1003.7 |
| 20260508191022 | 27 | 281 | 8.0 | 14.5 | 0.00 | 0.00 | 0.00 | 32 | 1004.4 |
| 20260508184021 | 26 | 231 | 6.4 | 14.5 | 0.00 | 0.00 | 0.00 | 38 | 1005.4 |
| 20260508181020 | 25 | 237 | 4.8 | 11.3 | 0.00 | 0.00 | 0.00 | 48 | 1006.8 |
| 20260508174019 | 23 | 234 | 4.8 | 9.7 | 0.00 | 0.00 | 0.00 | 54 | 1007.6 |
| 20260508171019 | 22 | 258 | 9.7 | 22.5 | 0.00 | 0.00 | 0.00 | 59 | 1008.5 |
| 20260508164017 | 21 | 233 | 9.7 | 22.5 | 0.00 | 0.00 | 0.00 | 63 | 1009.4 |
| 20260508161016 | 20 | 237 | 6.4 | 14.5 | 0.00 | 0.00 | 0.00 | 68 | 1010.2 |
| 20260508154015 | 18 | 233 | 3.2 | 9.7 | 0.00 | 0.00 | 0.00 | 74 | 1011.0 |
| 20260508151014 | 17 | 243 | 11.3 | 17.7 | 0.00 | 0.00 | 0.00 | 79 | 1011.6 |
| 20260508144013 | 17 | 220 | 6.4 | 16.1 | 0.00 | 0.00 | 0.00 | 80 | 1011.9 |
| 20260508141012 | 16 | 206 | 4.8 | 8.0 | 0.00 | 0.00 | 0.00 | 81 | 1012.1 |
| 20260508134011 | 15 | 200 | 3.2 | 8.0 | 0.00 | 0.00 | 0.00 | 83 | 1012.4 |
| 20260508131010 | 15 | 204 | 3.2 | 6.4 | 0.00 | 0.00 | 0.00 | 82 | 1012.4 |
| 20260508121030 | 14 | 237 | 1.6 | 4.8 | 0.00 | 0.00 | 0.00 | 84 | 1012.4 |
| 20260508053316 | 13 | 199 | 1.6 | 1.6 | 0.00 | 0.00 | 0.00 | 62 | 1013.9 |
| 20260508050315 | 15 | 202 | 3.2 | 3.2 | 0.00 | 0.00 | 0.00 | 58 | 1013.3 |
| 20260508043314 | 16 | 200 | 4.8 | 4.8 | 0.00 | 0.00 | 0.00 | 54 | 1013.2 |
| 20260508040313 | 16 | 193 | 6.4 | 6.4 | 0.00 | 0.05 | 0.00 | 51 | 1012.9 |
| 20260508033313 | 17 | 190 | 8.0 | 9.7 | 0.00 | 0.30 | 0.00 | 50 | 1012.3 |
| 20260508030311 | 18 | 187 | 8.0 | 16.1 | 0.00 | 0.69 | 0.00 | 48 | 1011.7 |
| 20260508023310 | 19 | 183 | 9.7 | 19.3 | 0.00 | 0.79 | 0.00 | 42 | 1010.9 |
| 20260508020309 | 20 | 187 | 4.8 | 8.0 | 0.00 | 0.79 | 0.00 | 36 | 1010.1 |
| 20260508003306 | 24 | 183 | 8.0 | 14.5 | 0.00 | 0.79 | 0.00 | 30 | 1008.7 |
| 20260508000305 | 25 | 181 | 6.4 | 11.3 | 0.00 | 0.79 | 0.00 | 30 | 1008.7 |
| 20260507233304 | 25 | 153 | 3.2 | 8.0 | 0.00 | 0.79 | 0.00 | 29 | 1008.6 |